Regional Weather Roundup
Issued by NWS

Home | Current Version | Previous Version | Text Only | Print | Product List | Glossary Off
Versions: 1 2 3 4 5 6 7 8 9 10 11 12 13 14 15 16 17 18 19 20 21 22 23 24 25 26 27 28 29 30 31 32 33 34 35 36 37 38 39 40 41 42 43 44 45 46 47 48 49 50

000
ASUS43 KLMK 262210
RWRKY
KENTUCKY REGIONAL WEATHER ROUNDUP
NATIONAL WEATHER SERVICE LOUISVILLE KY
500 PM EST MON JAN 26 2015

NOTE "FAIR" INDICATES FEW OR NO CLOUDS BELOW 12,000 FEET
WITH NO SIGNIFICANT WEATHER AND/OR OBSTRUCTIONS TO VISIBILITY.

KYZ001>023-026-027-061>063-070>075-262300-
WESTERN AND SOUTH CENTRAL KENTUCKY

CITY           SKY/WX    TMP DP  RH WIND       PRES   REMARKS
PADUCAH        CLOUDY    37  28  70 SW7       29.94F WCI  32
HENDERSON      CLOUDY    30  25  80 SW5       29.95F VSB 3/4 WCI  25
OWENSBORO      LGT SNOW  30  27  86 W5        29.96F VSB 1   WCI  25
HOPKINSVILLE   CLOUDY    37  27  65 W8        29.96R WCI  31
BOWLING GREEN  CLOUDY    33  26  75 W6        29.97R WCI  28
GLASGOW        CLOUDY    32  27  83 W8        29.95S WCI  24
$$

KYZ024-025-028>034-038-045-046-053-262300-
NORTH CENTRAL KENTUCKY

CITY           SKY/WX    TMP DP  RH WIND       PRES   REMARKS
LOUISVILLE/SDF CLOUDY    32  23  69 W7        29.94R WCI  26
LOUISVILLE/LOU CLOUDY    31  21  66 NW9       29.94R WCI  23
FORT KNOX      CLOUDY    31  24  76 W5        29.92R WCI  26
$$

KYZ035>037-039>044-047>052-055>060-089>105-262300-
NORTHEAST KENTUCKY

CITY           SKY/WX    TMP DP  RH WIND       PRES   REMARKS
LEXINGTON      CLOUDY    28  21  75 NW9       29.91R WCI  19
COVINGTON      MOCLDY    29  19  66 NW9       29.90R WCI  20
FRANKFORT      CLOUDY    30  20  66 NW6       29.91R WCI  24
$$

KYZ054-064>069-076>088-106>120-262300-
SOUTHEAST KENTUCKY

CITY           SKY/WX    TMP DP  RH WIND       PRES   REMARKS
JACKSON        CLOUDY    26  22  84 W7        29.86R WCI  18
LONDON         CLOUDY    30  23  75 W8        29.89R WCI  22
SOMERSET       CLOUDY    30  23  74 NW5       29.94R WCI  25
MIDDLESBORO    CLOUDY    30  26  84 NW5       29.90R WCI  25
MONTICELLO     CLOUDY    31  27  85 W9        29.95R WCI  23
$$




USA.gov is the U.S. government's official web portal to all federal, state and local government web resources and services.